Miami, FL

4:08 PM EST en Diciembre 11, 2017 (GMT -0500)
Miami International

Tiempo Historia de KMIA - Diciembre, 2017

Change the Weather History Date:

Jueves, Diciembre 7, 2017

  Actual Average Record
Temperature  
Temperatura media 78 ° F 72 ° F  
Temperatura máxima 85 ° F 79 ° F 86 ° F (1978)
Temperatura mínima 70 ° F 65 ° F 35 ° F (1937)
Degree Days  
Grados día de calefacción 0 1  
Month to date heating degree days 0 3  
Since 1 July heating degree days 0 6  
Cooling Degree Days 13 7  
Month to date cooling degree days 78 54  
Year to date cooling degree days 5129 4426  
Growing Degree Days 27 (Base 50)    
Moisture  
Punto de rocío 73 ° F    
Average Humidity 83    
Maximum Humidity 100    
Minimum Humidity 65    
Precipitación  
Precipitación 0.00 pul 0.06 pul 2.70 pul (1979)
Month to date precipitation 0.04 0.49  
Year to date precipitation 82.50 60.35  
Nieve  
Nieve 0.00 pul - - ()
Month to date snowfall 0.0  
Since 1 July snowfall 0.0  
Grosos de nieve 0.00 pul    
Presión al nivel del mar  
Presión al nivel del mar 29.99 pul    
Viento  
Velocidad del viento 6 mph (SE)    
Velocidad máxima del viento 13 mph    
Max Gust Speed 21 mph    
Visibilidad 9 Millas    
Eventos      
T = Trace of Precipitation, MM = Missing Value Source: NWS Daily Summary

Daily Weather History Graph

Daily Weather History Graph

Search for Another Location

Airport or City:

Trip Planner

Search our weather history database for the weather conditions in past years. The results will help you decide how hot, cold, wet, or windy it might be!

Date:

Astronomía

Dec. 07, 2017 Salida Puesta
Hora real 6:55 AM EST 5:30 PM EST
Crepúsculo civil 6:30 AM EST 5:55 PM EST
Crepúsculo náutico 6:01 AM EST 6:23 PM EST
Crepúsculo astronómico 5:33 AM EST 6:52 PM EST
Luna 10:04 PM EST (12/7) 10:42 AM EST (12/7)
Horas de luz 11h 25m
Horas de luz
10h 35m
Gibosa menguante, 78% of the Moon is Illuminated
Dic 7
Gibosa menguante
Dic 10
Cuarto menguante
Dic 18
Nueva
Dic 26
Cuarto creciente
Ene 1
Luna llena

Hourly Weather History & Observations

Hora (EST) Temp. Índice de calor Punto de rocío Humedad Presión Visibilidad Wind Dir Velocidad del viento Velocidad de ráfagas Precip Eventos Condiciones
12:53 AM 73.0 ° F - 71.1 ° F 93% 30.04 pul 10.0 mi Sin viento Sin viento - N/A   Parcialmente nublado
1:53 AM 73.0 ° F - 71.1 ° F 93% 30.03 pul 10.0 mi Sin viento Sin viento - N/A   Parcialmente nublado
2:53 AM 71.1 ° F - 71.1 ° F 100% 30.02 pul 10.0 mi Sin viento Sin viento - N/A   Parcialmente nublado
3:53 AM 72.0 ° F - 71.1 ° F 97% 30.01 pul 8.0 mi Sin viento Sin viento - N/A   Parcialmente nublado
4:53 AM 71.1 ° F - 70.0 ° F 96% 30.01 pul 7.0 mi Sin viento Sin viento - N/A   Parcialmente nublado
5:53 AM 70.0 ° F - 70.0 ° F 100% 30.01 pul 7.0 mi Sin viento Sin viento - N/A   Parcialmente nublado
6:53 AM 71.1 ° F - 70.0 ° F 96% 30.01 pul 5.0 mi Variable 4.6 mph - N/A   Parcialmente nublado
7:53 AM 75.0 ° F - 73.9 ° F 96% 30.03 pul 6.0 mi Sin viento Sin viento - N/A   Parcialmente nublado
8:53 AM 80.1 ° F 84.5 ° F 73.9 ° F 81% 30.03 pul 10.0 mi ESE 6.9 mph - N/A   Parcialmente nublado
9:38 AM 81.0 ° F 85.8 ° F 73.0 ° F 77% 30.03 pul 10.0 mi Este 8.1 mph - N/A   Muy nublado
9:53 AM 78.1 ° F - 73.0 ° F 84% 30.04 pul 10.0 mi ESE 8.1 mph - N/A   Muy nublado
10:53 AM 81.0 ° F 85.8 ° F 73.0 ° F 77% 30.02 pul 10.0 mi ESE 11.5 mph 20.7 mph N/A   Muy nublado
11:53 AM 84.0 ° F 90.2 ° F 73.0 ° F 69% 30.00 pul 10.0 mi SE 9.2 mph - N/A   Muy nublado
12:50 PM 84.2 ° F 89.6 ° F 71.6 ° F 66% 29.97 pul 10.0 mi SE 11.5 mph - N/A   Muy nublado
12:53 PM 84.0 ° F 89.6 ° F 72.0 ° F 67% 29.97 pul 10.0 mi SE 10.4 mph - N/A   Muy nublado
1:53 PM 84.0 ° F 89.6 ° F 72.0 ° F 67% 29.95 pul 10.0 mi ESE 10.4 mph - N/A   Nubes dispersas
2:53 PM 82.0 ° F 87.4 ° F 73.0 ° F 74% 29.94 pul 10.0 mi SE 11.5 mph - N/A   Nubes dispersas
3:53 PM 81.0 ° F 85.8 ° F 73.0 ° F 77% 29.93 pul 10.0 mi ESE 11.5 mph - N/A   Nubes dispersas
4:53 PM 79.0 ° F - 73.9 ° F 84% 29.93 pul 10.0 mi SE 6.9 mph - N/A   Muy nublado
5:53 PM 78.1 ° F - 73.9 ° F 87% 29.94 pul 10.0 mi ESE 8.1 mph - N/A   Muy nublado
6:53 PM 77.0 ° F - 73.9 ° F 90% 29.95 pul 10.0 mi ESE 9.2 mph - N/A   Muy nublado
7:53 PM 77.0 ° F - 73.9 ° F 90% 29.96 pul 10.0 mi SE 5.8 mph - N/A   Nubes dispersas
8:53 PM 78.1 ° F - 73.9 ° F 87% 29.97 pul 10.0 mi SE 6.9 mph - N/A   Nubes dispersas
9:53 PM 78.1 ° F - 73.9 ° F 87% 29.97 pul 10.0 mi SE 6.9 mph - N/A   Muy nublado
10:53 PM 78.1 ° F - 73.9 ° F 87% 29.96 pul 10.0 mi ESE 8.1 mph - N/A   Muy nublado
11:53 PM 77.0 ° F - 73.9 ° F 90% 29.96 pul 10.0 mi Sur 3.5 mph - N/A   Muy nublado